GFSMA_925_rhum_024.txt.gz
RH
68 70 67 67 64 62 62 64 63 65 63 62 57 55 50 55 58 42 40 41 33 34 43 61 74 84 89 81 84 83 83 83 82 86 84 78 80 88 85 83 77 74 70
68 64 59 56 54 55 56 61 61 60 52 51 48 46 40 44 44 40 34 49 30 28 31 37 47 58 66 70 69 73 82 84 81 82 82 85 82 80 87 84 82 78 75
64 65 54 52 48 52 65 69 67 64 58 48 43 41 42 49 42 41 40 38 49 35 34 34 32 31 35 50 64 77 87 94 90 89 83 77 77 86 92 94 90 85 82
65 62 54 51 50 53 56 57 57 54 52 47 39 36 36 38 43 44 41 39 38 37 41 35 34 34 33 34 38 52 79 81 84 99 95 90 89 86 84 93 92 94 90
61 63 54 52 56 55 54 57 54 56 50 44 39 35 36 37 37 39 38 42 42 40 37 46 29 30 31 32 34 42 68 83 89 82 95 100 100 98 92 82 85 94 92
52 56 53 54 58 56 52 52 55 53 52 46 38 32 34 38 39 38 38 39 42 45 43 40 45 41 26 21 20 30 60 71 87 84 76 76 94 95 96 95 91 88 96
53 55 52 52 53 56 58 57 54 57 58 52 51 42 39 40 46 42 40 39 38 43 42 46 43 35 38 33 23 17 24 58 64 65 71 75 64 56 66 86 98 100 100
50 50 52 53 53 54 55 60 63 61 57 53 51 45 40 35 38 45 44 40 42 40 38 48 40 42 38 35 36 26 13 20 32 64 67 66 82 79 63 56 77 95 90
49 49 50 53 56 57 54 55 58 59 60 57 52 53 44 42 34 34 47 46 42 46 42 42 42 39 41 38 40 43 36 22 23 28 47 67 65 65 74 76 67 82 97
47 48 52 54 57 56 55 56 55 59 60 58 56 53 56 51 46 47 43 47 47 48 48 44 39 42 44 43 43 41 33 17 22 28 34 52 71 76 73 76 75 72 81
43 43 51 59 61 60 57 64 67 68 66 63 61 58 58 58 55 60 50 45 50 47 46 47 45 46 48 48 46 44 39 24 30 37 36 46 48 60 72 66 77 77 75
38 41 49 64 68 71 71 73 77 77 76 75 76 71 72 70 66 63 59 51 52 48 43 46 50 53 52 51 48 44 38 31 35 35 49 56 63 62 58 76 89 79 76
44 49 62 68 71 79 81 87 93 97 99 99 99 100 99 99 99 99 99 95 84 76 69 62 53 52 51 51 52 48 46 48 50 50 54 51 49 45 50 63 79 89 90
54 65 75 79 80 82 85 92 97 98 98 98 98 98 98 99 99 100 99 98 97 93 75 78 59 50 47 49 47 50 53 44 42 44 43 42 38 40 38 47 51 54 63
62 73 84 79 84 93 90 92 98 98 100 98 95 94 94 98 98 97 98 98 94 83 59 41 40 38 38 41 44 47 50 50 50 50 49 45 50 48 41 36 41 44 44
75 82 89 87 93 99 98 99 99 100 95 92 89 92 88 85 84 79 81 72 67 57 48 35 31 29 32 33 36 42 44 46 50 54 55 49 41 34 31 38 45 45 44
89 88 97 98 98 98 98 99 96 87 79 73 68 62 54 48 45 43 42 44 44 41 40 35 33 33 36 40 43 46 47 47 47 51 53 52 52 41 53 65 59 52 48
98 98 98 99 92 81 86 84 68 62 57 53 51 49 45 41 42 44 44 44 43 42 41 40 36 36 38 40 42 46 48 45 43 41 44 50 50 56 59 54 45 45 45
94 92 82 73 66 62 58 56 53 54 54 52 49 48 49 50 51 50 49 46 44 42 41 40 39 38 38 39 40 42 44 45 47 47 49 52 56 58 59 51 40 35 31
70 72 74 81 84 71 60 54 54 54 54 52 54 55 55 56 56 54 51 48 47 46 44 44 42 40 40 40 42 44 45 46 47 47 48 51 54 57 62 69 73 73 62
68 69 68 59 57 56 47 63 59 55 51 49 50 54 54 56 67 74 69 58 54 50 47 49 62 59 54 50 50 50 54 54 53 55 60 63 62 59 59 62 65 60 55
49 50 51 53 54 52 59 63 71 59 54 54 56 55 56 57 56 64 74 83 80 78 75 76 70 69 64 61 59 62 65 66 70 63 64 68 68 69 63 59 58 62 68
50 50 52 54 56 57 60 67 80 65 62 61 61 58 54 51 60 72 83 91 88 85 90 84 82 75 68 65 66 68 70 75 68 59 65 78 77 72 76 74 72 72 78
51 52 54 56 58 56 65 80 84 72 66 64 62 59 61 71 76 86 90 86 90 86 88 92 91 77 70 77 81 78 74 75 75 73 72 83 74 77 72 77 79 81 79
53 53 57 60 61 66 72 86 90 75 71 72 75 79 78 85 88 98 97 94 81 76 69 76 83 85 80 76 78 89 94 86 84 67 64 75 76 78 70 76 78 77 81
54 62 71 72 72 73 84 90 85 78 88 83 83 81 87 86 93 94 98 98 91 72 76 84 82 89 90 88 82 91 94 90 83 76 58 74 78 72 77 70 71 79 85

GFSMA_925_rhum_030.txt.gz
RH
56 57 55 53 49 46 44 45 46 47 49 50 52 51 50 48 44 42 46 44 39 35 28 37 83 88 90 76 80 84 88 88 86 84 82 82 79 82 79 79 82 80 79
57 57 53 52 48 44 43 44 47 51 52 52 52 47 45 45 43 36 42 40 38 33 27 26 74 82 81 73 71 75 81 84 86 86 84 84 84 81 78 82 81 79 79
54 54 53 50 48 47 47 48 49 49 48 49 49 48 45 43 40 39 36 40 36 39 36 23 33 42 53 72 60 64 70 74 78 77 78 81 84 85 88 84 81 88 84
53 54 54 52 50 50 50 53 51 51 50 49 48 47 45 42 39 39 38 42 40 42 39 36 26 28 32 33 34 36 49 69 76 80 84 83 88 88 85 85 83 85 89
45 48 51 52 52 52 52 53 53 52 52 52 51 49 46 45 41 37 37 40 41 39 44 40 37 31 27 31 31 33 66 57 68 69 72 88 98 98 97 90 86 92 95
49 52 51 51 51 51 51 51 52 54 57 58 59 57 54 52 50 45 38 37 39 41 38 43 44 40 32 28 29 33 62 73 66 59 61 60 72 90 92 93 95 92 88
48 50 50 50 48 48 49 50 52 54 57 58 61 62 59 57 56 54 47 40 39 39 40 40 43 43 41 34 23 28 56 65 64 59 54 54 62 55 60 76 90 96 100
50 51 49 49 50 49 52 53 53 57 58 56 60 64 71 61 56 52 51 47 42 41 40 42 45 47 44 40 31 29 38 57 62 60 51 43 40 46 56 60 64 60 75
49 46 42 40 42 48 55 58 57 57 64 61 57 61 73 71 61 56 52 54 54 50 46 46 46 45 44 46 39 35 33 32 39 55 66 36 30 30 34 44 51 69 66
41 40 41 42 48 52 58 60 62 64 68 72 69 70 76 81 89 84 60 60 62 60 58 66 63 70 48 45 45 41 39 37 34 28 56 58 61 55 53 43 58 76 80
47 46 44 44 51 56 58 68 75 80 82 86 88 91 87 82 74 84 85 70 66 69 77 84 80 72 73 64 46 47 44 44 42 38 28 35 57 63 69 71 69 69 72
52 49 48 51 59 72 78 79 77 80 85 83 78 81 94 98 95 97 95 90 93 85 80 78 87 88 84 72 67 58 49 46 46 43 40 36 39 67 64 65 69 73 72
54 54 59 72 75 74 76 78 81 86 89 89 99 99 97 99 99 98 99 98 98 96 86 72 79 88 83 93 79 72 72 53 46 43 42 34 32 65 70 70 70 70 72
54 71 76 77 79 83 85 83 85 87 97 100 91 98 91 95 97 98 99 99 100 89 76 85 81 89 89 94 97 81 74 66 53 47 46 45 31 40 47 61 72 70 67
66 80 78 87 88 80 76 76 83 99 99 98 98 98 100 100 96 91 89 93 98 98 83 60 70 73 83 93 92 95 77 71 59 52 51 50 48 43 38 41 41 48 67
74 76 67 82 87 91 86 78 74 80 83 84 85 84 81 75 76 75 86 98 100 93 89 62 60 52 50 50 62 64 47 49 50 50 49 48 48 49 48 48 46 40 35
68 74 72 78 81 82 74 75 73 71 71 68 64 61 63 61 55 53 48 50 65 77 95 80 65 55 43 42 43 43 46 42 40 41 42 42 44 44 44 45 46 46 41
67 74 81 86 85 71 64 56 55 56 52 55 52 48 48 46 46 46 47 48 48 47 48 52 46 42 40 38 37 38 39 42 42 42 46 46 45 46 46 47 48 47 46
73 82 68 70 71 62 49 44 42 45 52 52 50 51 51 49 49 50 51 53 53 51 48 50 49 44 42 40 38 38 38 39 40 41 41 40 40 42 43 45 47 48 46
77 66 56 49 45 43 42 45 48 55 59 58 55 54 54 51 50 50 56 55 54 55 56 55 54 51 47 45 42 44 47 46 46 45 42 43 48 50 45 44 46 47 49
52 52 49 42 42 42 47 49 54 61 63 63 60 59 58 54 53 52 51 53 54 57 62 65 66 68 67 61 60 61 63 61 60 62 62 55 53 54 59 64 65 62 61
53 43 42 43 44 47 53 56 60 66 72 72 67 64 65 65 56 57 60 65 77 77 76 75 72 72 71 68 66 67 69 75 86 66 63 65 65 62 63 63 65 65 70
42 43 44 45 51 58 62 70 77 78 78 75 74 73 72 68 66 66 68 69 72 78 83 87 96 84 79 75 72 70 70 75 79 72 70 75 70 74 73 71 68 69 68
43 44 44 57 63 63 70 76 80 77 70 78 80 70 73 79 78 77 77 87 84 88 84 87 98 95 90 88 87 96 99 98 98 93 81 88 78 78 72 71 70 72 70
44 44 51 65 68 69 67 76 91 84 84 80 76 80 80 73 73 81 91 93 95 91 86 79 84 92 91 86 83 93 95 92 85 78 73 95 90 75 72 74 71 69 69
44 53 68 70 75 74 83 79 82 97 96 90 83 83 80 81 92 96 96 96 98 90 87 90 89 84 69 71 72 82 98 98 93 88 76 71 71 74 85 73 67 70 76

GFSMA_925_rhum_036.txt.gz
RH
58 59 57 54 52 50 49 48 48 48 46 49 51 50 50 50 50 48 46 45 42 37 39 47 40 35 41 83 74 70 78 84 90 89 86 83 80 80 79 77 75 84 81
54 53 55 54 53 52 53 52 50 50 48 52 53 53 52 51 51 52 50 48 44 39 35 41 40 36 34 45 83 72 70 80 87 91 89 88 86 84 82 79 74 80 85
44 54 54 50 51 53 52 53 53 55 57 59 61 60 59 57 56 55 54 53 47 43 38 34 37 39 35 34 38 70 56 62 72 84 90 89 87 85 84 84 82 76 85
50 51 50 50 52 51 51 53 54 54 53 52 52 51 52 53 60 61 58 58 58 52 42 36 35 36 36 36 35 43 83 58 58 69 75 80 82 84 85 87 88 86 83
53 52 51 53 51 50 50 50 49 49 50 49 49 50 50 54 53 54 56 59 56 57 59 45 39 37 36 34 37 36 66 70 77 82 95 83 77 80 80 84 90 93 84
52 54 53 52 50 48 46 46 51 52 53 52 50 42 48 43 42 50 57 60 63 63 66 67 59 47 41 38 37 37 60 62 64 79 92 96 84 88 88 92 91 89 91
50 50 46 43 44 46 52 55 53 52 48 61 62 67 67 52 62 63 65 65 63 65 68 75 81 68 56 48 39 38 44 62 61 68 84 91 95 79 88 92 92 93 92
44 44 43 44 45 45 45 46 50 58 71 79 80 78 90 70 70 59 54 60 67 67 68 70 79 91 86 70 60 47 39 58 62 62 69 89 82 66 62 68 82 87 88
48 48 49 50 49 46 47 54 64 75 82 77 80 79 94 96 74 63 56 62 58 59 63 62 58 60 77 94 78 69 64 47 43 58 69 88 88 86 77 63 58 58 66
56 56 56 54 51 60 72 76 73 69 75 82 77 81 80 84 91 75 66 63 73 61 55 55 61 63 64 70 88 90 69 64 66 45 57 78 80 81 78 75 70 60 58
58 57 54 52 52 65 69 70 74 79 81 82 87 91 91 89 82 93 88 79 84 81 75 59 66 84 88 91 93 98 100 88 70 70 61 73 75 80 72 68 74 77 70
56 56 58 63 64 62 70 87 90 89 90 92 94 93 98 91 87 88 84 79 83 84 75 55 74 90 69 62 94 98 100 100 83 73 69 71 77 74 70 74 76 74 75
59 66 72 66 62 63 71 76 75 76 78 80 92 97 94 87 91 98 99 96 87 81 84 62 57 81 59 55 64 72 95 100 96 92 88 70 65 66 68 74 72 73 76
70 68 67 70 70 68 63 73 74 75 75 76 77 86 91 92 93 98 99 99 97 87 79 74 65 58 56 57 59 62 78 100 100 97 91 76 74 70 79 75 70 71 74
66 70 75 80 80 75 68 76 76 74 78 76 75 79 83 79 80 80 80 92 99 96 82 74 74 64 52 49 60 65 62 71 99 98 100 98 87 86 63 49 48 49 46
70 73 70 68 76 75 70 69 72 74 66 63 69 73 76 63 52 53 54 55 62 96 92 73 74 68 51 48 46 58 62 63 82 98 100 100 99 100 94 87 65 59 51
52 56 71 76 68 61 61 59 57 55 54 60 56 55 53 53 58 47 48 50 53 58 83 73 64 57 58 52 48 45 46 46 67 72 84 99 100 99 85 57 45 44 47
51 59 63 64 55 51 46 48 49 58 59 59 58 57 57 57 56 52 48 56 62 61 66 74 62 59 51 48 50 50 48 47 47 48 54 59 68 86 76 67 52 47 47
58 59 57 54 55 48 48 51 51 53 55 60 65 67 66 62 60 61 65 71 74 69 68 67 64 58 61 60 55 53 58 61 59 60 57 52 49 59 67 63 57 45 43
61 57 56 46 45 46 49 51 54 61 64 66 66 60 55 71 78 81 83 86 86 84 78 71 69 68 69 65 62 63 61 58 56 58 58 55 52 52 53 54 56 51 47
59 58 50 44 44 49 52 60 61 58 64 70 71 63 61 71 73 77 91 94 97 90 91 95 93 87 81 77 72 67 75 75 74 65 56 52 50 53 51 52 50 48 53
83 51 44 44 50 56 64 65 62 68 79 83 82 77 75 74 73 81 82 90 77 88 94 92 89 91 87 74 75 82 84 85 95 66 67 66 62 55 54 54 62 62 61
80 44 48 55 61 67 69 70 76 82 88 91 92 92 93 85 68 80 80 83 85 84 87 88 98 98 92 85 85 93 93 95 91 76 85 89 89 84 65 64 63 60 56
77 56 58 67 67 63 64 76 81 86 90 88 83 82 81 78 86 92 93 96 93 88 82 89 99 93 90 86 95 94 92 100 98 98 100 97 77 75 60 53 48 57 60
69 62 70 69 63 70 82 90 92 95 90 82 80 80 86 90 91 90 97 98 96 88 74 82 89 93 97 100 99 100 99 99 94 84 80 91 85 84 78 76 69 63 65
59 67 68 63 69 75 76 93 89 92 87 95 96 93 91 92 95 97 97 98 99 94 92 91 85 83 82 79 77 82 86 94 89 88 72 90 86 91 92 68 64 57 51

GFSMA_925_rhum_042.txt.gz
RH
64 62 62 62 59 57 57 57 57 56 56 55 55 55 55 55 56 58 60 61 60 59 58 58 65 69 66 68 65 50 42 35 36 43 53 70 84 81 79 80 79 75 75
65 65 64 60 60 60 59 57 55 53 51 50 48 47 47 46 44 43 48 48 50 58 60 59 60 58 70 68 66 65 53 38 34 32 40 62 70 82 84 84 81 80 78
69 66 64 64 62 58 55 52 50 49 48 45 42 38 36 33 30 29 40 52 55 54 58 60 58 56 58 57 69 70 70 57 45 39 33 33 60 73 80 85 86 84 82
68 67 64 60 57 54 51 50 49 47 46 44 41 39 36 32 28 30 52 62 65 66 66 65 64 64 61 60 60 78 76 69 75 61 45 35 30 46 69 77 86 88 86
62 60 57 53 51 51 51 44 44 44 43 41 42 39 35 31 36 46 65 59 60 62 65 66 66 67 69 72 68 71 90 86 73 76 80 58 40 33 33 56 75 82 85
52 50 48 46 45 45 47 47 44 43 49 66 58 56 46 35 58 69 56 49 53 54 54 54 52 52 54 55 62 82 97 94 89 81 74 81 70 52 40 39 56 76 83
44 44 45 46 50 52 48 45 48 56 61 72 76 68 52 72 54 58 50 52 50 53 55 54 52 48 44 43 43 49 96 100 100 98 87 78 78 74 59 53 50 65 84
47 49 52 55 55 50 47 49 55 64 66 69 79 76 87 63 75 57 52 55 57 53 53 56 54 59 65 67 66 61 85 71 91 99 94 94 92 81 80 68 55 56 77
55 57 58 55 54 54 56 55 53 57 79 79 82 81 89 91 90 63 60 66 63 60 58 57 61 74 62 52 59 95 97 72 79 95 98 92 88 87 86 77 72 57 73
60 59 57 58 59 58 56 55 53 61 83 88 82 85 85 96 99 88 72 65 69 69 72 65 68 62 72 54 52 57 77 61 65 90 94 99 99 89 89 91 88 67 69
61 58 59 60 59 57 59 59 63 76 86 85 93 99 98 91 86 92 83 65 75 76 76 77 72 63 57 66 50 54 62 61 57 64 86 86 100 99 89 97 97 91 85
61 62 61 59 54 60 63 63 64 68 72 75 82 95 91 85 76 78 84 83 84 78 73 71 72 62 60 58 52 49 52 64 64 61 72 81 95 99 98 90 98 97 85
52 57 59 53 53 61 64 67 69 71 75 82 84 83 86 94 97 95 99 92 96 85 82 79 74 65 61 53 51 48 47 57 64 66 58 76 89 98 98 91 82 87 90
51 55 53 51 53 64 65 75 77 80 79 75 77 79 81 83 84 97 99 100 93 76 72 72 71 61 53 53 48 48 45 47 65 66 57 61 80 98 97 99 99 88 92
50 55 55 60 72 76 80 83 82 71 67 63 65 66 70 81 96 94 76 70 92 92 78 64 65 59 58 57 50 53 49 46 45 50 58 64 59 84 99 98 96 87 98
54 63 60 63 70 79 83 75 71 70 68 63 63 65 62 59 56 58 62 69 70 93 89 65 60 57 56 61 53 54 52 51 48 47 56 75 72 60 82 98 98 90 99
68 68 55 60 70 76 66 58 55 53 49 55 60 58 56 58 59 61 60 60 64 70 84 71 71 70 68 64 64 56 53 51 43 45 52 56 55 73 63 94 100 100 99
72 67 63 69 72 72 61 56 48 49 57 56 58 60 56 58 59 56 57 64 73 82 95 93 89 91 83 73 67 59 56 53 48 46 61 67 64 81 77 67 100 100 100
70 71 71 76 77 76 61 55 53 56 59 61 60 63 64 69 68 64 64 76 74 89 99 98 91 94 88 82 71 65 63 60 57 49 43 48 60 63 95 85 85 99 99
72 85 85 85 84 96 70 58 60 64 62 63 67 74 78 80 82 82 89 84 82 88 93 91 91 89 93 83 82 83 75 70 64 52 47 44 42 56 56 76 68 88 75
83 87 92 97 100 74 78 74 68 68 69 72 77 84 87 94 92 91 91 94 92 93 92 91 89 87 86 90 88 80 80 72 68 65 58 56 55 49 56 57 59 67 75
87 80 94 93 76 85 74 74 76 80 83 89 93 91 86 86 87 91 91 88 88 94 95 92 90 90 86 91 92 91 92 92 88 73 76 73 81 82 75 64 56 59 61
92 86 86 82 86 71 70 71 75 81 85 76 74 70 80 88 89 92 90 95 93 95 94 96 97 96 97 95 97 97 94 98 96 83 89 90 84 83 66 68 64 59 53
87 92 88 78 71 65 67 68 79 81 75 67 68 79 95 94 93 95 97 96 94 97 96 97 96 94 94 92 94 95 98 97 96 98 100 97 85 83 70 66 59 54 52
99 98 80 74 68 65 70 79 87 82 73 74 78 85 94 97 98 95 97 98 94 88 95 95 98 98 98 98 97 99 97 98 96 84 88 100 89 88 82 66 63 65 63
70 77 78 70 68 73 73 82 90 86 84 91 90 87 85 100 97 92 95 97 99 96 94 90 93 94 96 96 97 99 98 96 89 84 71 93 86 87 92 75 68 68 69